Weather Roundup
Issued by NWS

Home | Current Version | Previous Version | Graphics & Text | Print | Product List | Glossary Off
Versions: 1 2 3 4 5 6 7 8 9 10 11 12 13 14 15 16 17 18 19 20 21 22 23 24 25 26 27 28 29 30 31 32 33 34 35 36 37 38 39 40 41 42 43 44 45 46 47 48 49 50

000
NZUS93 KARX 222359
HRRWXR

CURRENT HOURLY OBSERVATIONS ACROSS
MUCH OF THE UPPER MISSISSIPPI VALLEY
NATIONAL WEATHER SERVICE LA CROSSE WI
700 PM CDT FRI JUL 22 2016


...SOUTHEAST MINNESOTA...


CITY           SKY/WX    TMP DP  RH WIND       PRES   REMARKS
ROCHESTER      MOSUNNY   89  79  72 CALM      30.00S HX 104
ROCHESTER/MAYO CLOUDY    88  75  65 NE7       30.00R HX  98
WINONA         SUNNY     90  72  55 NE3       29.97R HX  96
AUSTIN         SUNNY     88  77  70 S3        29.99S HX 100
ALBERT LEA     MOSUNNY   86  79  79 CALM      29.99S HX  99
DODGE CENTER   PTSUNNY   88  75  66 NE5       30.01R HX  97
PRESTON        SUNNY     85  76  73 CALM      30.00F HX  95
OWATONNA       MOSUNNY   88  75  66 NE3       29.99S HX  97
FARIBAULT      SUNNY     88  72  58 N6        29.99F HX  94
$$

...ELSEWHERE IN MINNESOTA...


CITY           SKY/WX    TMP DP  RH WIND       PRES   REMARKS
MINNEAPOLIS    MOSUNNY   93  58  30 SE7       29.97F HX  92
INTNL FALLS    SUNNY     81  56  42 W8        29.98F
DULUTH         CLOUDY    83  60  45 NW7       30.00S
RED WING       SUNNY     91  61  35 CALM      29.97S HX  91
REDWOOD FALLS  SUNNY     85  67  54 E5        29.96F
MANKATO        SUNNY     88  72  58 NE8       29.98F HX  94
WORTHINGTON    SUNNY     86  79  79 E10       29.99F HX  99
FAIRMONT       MOSUNNY   84  57  39 SE7       29.98S
$$

...SOUTHWEST WISCONSIN...


CITY           SKY/WX    TMP DP  RH WIND       PRES   REMARKS
LA CROSSE      SUNNY     92  75  57 NW3       29.95S HX 103
PRAIRIE DU CHI CLOUDY    85  75  70 S3        29.97S HX  94
BOSCOBEL       MOSUNNY   87  78  74 CALM      29.97S HX 100
LONE ROCK      NOT AVBL
PLATTEVILLE    SUNNY     84  80  85 S6        30.00S HX  97
FORT MC COY    SUNNY     90  72  55 NW5       29.97S HX  97
MAUSTON-NEW LI CLEAR     89  77  67 W3        29.97S HX 101
VIROQUA        FAIR      86  78  76 SW3       30.00S HX  98
WIS DELLS      NOT AVBL
$$

...ELSEWHERE IN WISCONSIN...


CITY           SKY/WX    TMP DP  RH WIND       PRES   REMARKS
MILWAUKEE      MOSUNNY   84  70  62 E6        29.96S
MADISON        MOSUNNY   89  75  63 CALM      29.96F HX  99
GREEN BAY      SUNNY     87  70  56 W3        29.94S HX  92
EAU CLAIRE     NOT AVBL
BLACK RVR FLS  FAIR      91  62  37 CALM      29.96F HX  92
MEDFORD        SUNNY     85  68  56 W6        30.01S
WAUSAU         SUNNY     87  65  47 W9        29.97S
WIS RAPIDS     SUNNY     90  60  36 NW5       29.99S
MARSHFIELD     SUNNY     87  66  49 W5        30.00S
RICE LAKE      SUNNY     86  66  50 CALM      30.02S
$$

...NORTHEAST IOWA...


CITY           SKY/WX    TMP DP  RH WIND       PRES   REMARKS
WATERLOO       CLOUDY    87  77  72 SE5       29.96S HX  99
DUBUQUE        CLOUDY    83  77  82 SW5       30.00F HX  92
DECORAH        MOSUNNY   84  79  84 S5        29.99S HX  96
MASON CITY     PTSUNNY   86  79  79 E3        30.00S HX  99
CHARLES CITY   LGT RAIN  82  82 100 E3        30.00R HX  97
OELWEIN        MOSUNNY   86  79  79 E7        30.00S HX  99
$$

...ELSEWHERE IN IOWA...


CITY           SKY/WX    TMP DP  RH WIND       PRES   REMARKS
DES MOINES     MOSUNNY   90  77  65 S8        29.95S HX 103
IOWA CITY      SUNNY     86  78  77 S6        29.98F HX  98
FORT DODGE     PTSUNNY   90  79  70 CALM      29.96S HX 105
MARSHALLTOWN   PTSUNNY   86  80  82 SE9       29.96S HX 101
CEDAR RAPIDS   SUNNY     85  81  88 S5        29.97F HX 100
$$

...NORTHERN ILLINOIS...


CITY           SKY/WX    TMP DP  RH WIND       PRES   REMARKS
CHICAGO-OHARE  MOSUNNY   88  75  65 W3        29.96F HX  97
CHICAGO-MIDWAY MOSUNNY   89  74  60 NW6       29.96S HX  98
MOLINE         MOSUNNY   87  76  69 SW5       29.97F HX  97
ROCKFORD       MOSUNNY   88  75  65 CALM      29.98F HX  97
PEORIA         SUNNY     86  76  71 S5        29.99R HX  96
$$

NOTE: "FAIR" INDICATES FEW OR NO CLOUDS BELOW 12,000 FEET WITH NO
SIGNIFICANT WEATHER AND/OR OBSTRUCTIONS TO VISIBILITY. WIND
SPEEDS ARE IN MILES-PER-HOUR.




USA.gov is the U.S. government's official web portal to all federal, state and local government web resources and services.